Home > Weather > Havana > Past weeks

Flag for Cuba Weather for the Past 2 Weeks in Havana, Cuba

Now
68 °F

Passing clouds.


Feels Like: 68 °F
Forecast: 69 / 73 °F
Wind: 9 mph from Northwest

Location: Aeropuerto Jose Marti - Rancho-Boyeros - Habana

Current Time: Feb 10, 2016 at 6:42:07 AM

Latest Report: Feb 10, 2016 at 5:55 AM


Visibility: 6 mi

Pressure: 30.15 "Hg

Humidity: 60%

Dew point: 54 °F

Location of HavanaLocation

Historic Weather in Havana — Graph

°F

Havana Temperature Yesterday

Maximum temperature yesterday: 73 °F (at 1:55 PM)
Minimum temperature yesterday: 55 °F (at 2:55 AM)
Average temperature yesterday: 66 °F

High & Low Weather Summary for the Past Weeks

 TemperatureHumidityPressure
High86 °F (Feb 2, 1:55 PM)94% (Jan 30, 4:55 AM)30.18 "Hg (Jan 30, 4:55 AM)
Low50 °F (Jan 30, 6:55 AM)43% (Feb 8, 10:55 AM)29.86 "Hg (Jan 28, 1:55 PM)
Average70 °F74%30.05 "Hg
* Reported Jan 26 4:55 AM — Feb 10 4:55 AM, Havana, Weather by CustomWeather, © 2016

Note: Actual official high and low records may vary slightly from our data, if they occured in-between our weather recording intervals... More about our weather records

Advertising

Havana Weather History for the Previous 24 Hours

 ConditionsComfort  
Time TempWeatherWind HumidityBarometerVisibility
4:55 AM
Wed, Feb 10
63 °FPassing clouds.3 mph77%30.15 "Hg6 mi
3:55 AM63 °FPassing clouds.3 mph77%30.12 "Hg6 mi
2:55 AM63 °FPassing clouds.5 mph77%30.12 "Hg6 mi
1:55 AM63 °FPassing clouds.5 mph77%30.15 "Hg6 mi
12:55 AM64 °FPassing clouds.5 mph68%30.15 "Hg6 mi
11:55 PM
Tue, Feb 9
66 °FPassing clouds.6 mph64%30.15 "Hg6 mi
10:55 PM68 °FPassing clouds.6 mph60%30.15 "Hg6 mi
9:55 PM68 °FPassing clouds.7 mph60%30.15 "Hg6 mi
8:55 PM68 °FPassing clouds.7 mph60%30.15 "Hg6 mi
7:55 PM68 °FPassing clouds.8 mph60%30.15 "Hg6 mi
6:55 PM68 °FPassing clouds.9 mph60%30.12 "Hg6 mi
5:55 PM70 °FPartly sunny.10 mph60%30.09 "Hg6 mi
4:55 PM72 °FPartly sunny.9 mph57%30.09 "Hg6 mi
3:55 PM72 °FOvercast.9 mph57%30.09 "Hg6 mi
2:55 PM72 °FOvercast.13 mph57%30.09 "Hg6 mi
1:55 PM73 °FPartly sunny.15 mph53%30.09 "Hg6 mi
12:55 PM72 °FPartly sunny.14 mph57%30.12 "Hg6 mi
11:55 AM72 °FBroken clouds.10 mph57%30.15 "Hg6 mi
9:55 AM72 °FBroken clouds.12 mph53%30.15 "Hg6 mi
8:55 AM66 °FBroken clouds.10 mph68%30.15 "Hg6 mi
7:55 AM61 °FBroken clouds.6 mph83%30.12 "Hg6 mi
6:55 AM61 °FPartly cloudy.7 mph83%30.09 "Hg6 mi
Weather by CustomWeather, © 2016

See weather overviewHow to use our weather pages